[[{"header":{"parameterUnit":"m.s-1","parameterCategory":1,"la1":30.2991,"la2":30.254,"lo1":-89.0895,"lo2":-89.0444,"dy":0.0017,"dx":0.0017,"nx":28,"ny":28,"refTime":"2026-02-08T09:00:00:Z","depth":0,"parameterNumber":2,"parameterNumberName":"U-component_of_WINDS"},"data":[0,0,0,0,0,0,0,0,0,0,0,0,0,0,0,0,0,0,0,0,0,0,0,0,0,0,0,0,0,0,0,0,0,0,0,0,0,0,0,0,0,0,0,0,0,0,0,0,0,0,0,0,0,0,0,0,0,0,1.2707,1.2708,0,1.2784,1.2785,1.2786,1.2785,1.2784,1.2783,1.2782,1.2867,1.287,1.2873,0,0,0,0,0,0,0,0,0,0,0,0,0,1.2566,1.2569,1.2707,1.2708,1.2709,1.2784,1.2785,1.2786,1.2785,1.2784,1.2783,1.2782,1.2866,1.2869,1.2873,0,0,0,0,0,0,0,0,0,0,0,0,0,1.2634,1.257,1.2707,1.2717,1.2719,1.2783,1.2785,1.2786,1.2786,1.2784,1.2783,1.2781,1.2864,1.2869,1.2874,1.2934,0,0,1.2889,1.2891,0,0,0,0,0,0,0,0,1.263,1.2639,1.2715,1.2717,1.2719,1.2773,1.2766,1.2836,1.2786,1.2761,1.2782,1.278,1.2837,1.2844,1.2862,1.2938,1.2942,1.2889,1.2892,1.2894,1.2895,0,0,0,0,0,0,0,1.2625,1.2636,1.2738,1.2716,1.2719,1.2721,1.2729,1.2779,1.2807,1.2763,1.2763,1.2772,1.2838,1.2858,1.2864,1.2943,1.2889,1.2893,1.2896,1.2898,1.3076,1.3078,0,0,0,0,0,0,1.2618,1.2632,1.2735,1.274,1.267,1.2724,1.2733,1.2757,1.2806,1.2812,1.2773,1.2771,1.285,1.2859,1.2867,1.2943,1.2894,1.2898,1.2901,1.3074,1.3076,1.3078,0,0,0,0,0,0,1.2615,1.2627,1.2732,1.2686,1.2699,1.2728,1.2756,1.276,1.2779,1.2814,1.2819,1.2787,1.2849,1.286,1.2918,1.2946,1.2901,1.2905,1.3072,1.3075,1.3077,1.3093,0,0,0,0,0,0,1.2611,1.2626,1.2647,1.2686,1.2702,1.2779,1.2757,1.2762,1.2787,1.2785,1.2829,1.2835,1.2849,1.2911,1.2923,1.2951,1.2909,1.3069,1.3073,1.3076,1.309,1.3096,1.3101,0,0,0,0,0,1.2606,1.2649,1.2648,1.2661,1.2729,1.2781,1.279,1.2804,1.2789,1.2812,1.2835,1.2833,1.294,1.2916,1.293,1.2961,1.3068,1.3072,1.3076,1.3088,1.3095,1.3101,0,0,0,0,0,0,1.2614,1.2655,1.2654,1.2711,1.2742,1.278,1.281,1.281,1.2848,1.2845,1.2863,1.2873,1.2931,1.2951,1.2924,1.3023,1.3003,1.301,1.3007,1.3014,1.3019,1.3014,1.2913,0,0,0,0,0,1.2622,1.2659,1.2693,1.2741,1.2756,1.278,1.2803,1.2811,1.2845,1.2859,1.2886,1.292,1.2962,1.2989,1.303,1.3093,1.3104,1.3122,1.3127,1.3131,1.3137,1.3175,1.3184,1.3092,1.3092,1.3092,0,0,1.264,1.2667,1.2689,1.2743,1.2768,1.2808,1.2791,1.2834,1.2864,1.2866,1.2922,1.2943,1.2983,1.3044,1.3073,1.3064,1.3165,1.3136,1.314,1.3143,1.318,1.3189,1.3197,1.3095,1.3094,1.3094,0,0,1.2694,1.2716,1.2759,1.2785,1.2823,1.2839,1.2849,1.2888,1.2901,1.2957,1.296,1.2998,1.3069,1.3098,1.3122,1.3188,1.3189,1.3201,1.3229,1.3266,1.3273,1.328,1.3305,1.3314,1.3207,1.3207,1.3207,0,1.2712,1.2769,1.2782,1.2824,1.2849,1.2851,1.2896,1.2921,1.2971,1.2989,1.2978,1.3068,1.3095,1.3164,1.3181,1.32,1.3214,1.3196,1.3271,1.3278,1.3284,1.3308,1.3318,1.3208,1.3208,1.3208,1.3208,0,1.2791,1.2831,1.2862,1.2908,1.2936,1.298,1.3001,1.3029,1.3035,1.3054,1.3112,1.3145,1.3192,1.321,1.3216,1.3281,1.3274,1.3267,1.3247,1.3294,1.3317,1.3326,1.321,1.321,1.3209,1.3209,0,0,1.285,1.2904,1.2915,1.2937,1.298,1.3013,1.3058,1.3103,1.3127,1.3162,1.3202,1.3263,1.3257,1.3284,1.3295,1.3327,1.338,1.3316,1.3317,1.3328,1.3455,1.3461,1.3471,1.3381,1.3383,1.3384,1.3452,0,1.2909,1.2986,1.3,1.3069,1.3108,1.3112,1.3152,1.3184,1.3203,1.324,1.3262,1.3305,1.3293,1.331,1.3342,1.3367,1.3406,1.3362,1.342,1.3422,1.341,1.3483,1.3489,1.3552,1.3461,1.3463,1.3464,0,1.2986,1.3022,1.3095,1.3134,1.3151,1.3186,1.323,1.3265,1.3303,1.3315,1.3346,1.3354,1.3404,1.3381,1.3452,1.3422,1.3447,1.3463,1.3466,1.3472,1.3446,1.3493,1.3572,1.3582,1.3478,1.3477,1.3476,0,1.3024,1.3091,1.3143,1.3162,1.3209,1.3234,1.3255,1.3291,1.3318,1.3358,1.3376,1.3421,1.3446,1.3482,1.3503,1.3484,1.3573,1.3551,1.3586,1.3585,1.3604,1.3603,1.369,1.3619,1.3619,1.3619,1.3619,0,1.3088,1.3133,1.3161,1.3193,1.3245,1.3261,1.3312,1.3333,1.3366,1.3405,1.3411,1.3448,1.3472,1.3513,1.353,1.3587,1.3598,1.3611,1.3615,1.3611,1.3609,1.3628,1.3624,1.3621,1.3621,1.362,1.362,0,1.3139,1.3159,1.3217,1.3257,1.3268,1.3304,1.334,1.3373,1.3392,1.3441,1.3454,1.3485,1.3533,1.3557,1.3618,1.363,1.3695,1.3696,1.3682,1.3683,1.3717,1.3714,1.3819,1.3835,1.3753,1.3754,1.3754,0,1.3178,1.3213,1.3256,1.3282,1.3303,1.3344,1.3372,1.3391,1.342,1.3466,1.3495,1.3543,1.3583,1.3661,1.3691,1.3739,1.3741,1.3775,1.3749,1.3744,1.3744,1.3741,1.3746,1.378,1.3781,1.3781,1.3782,0,1.3247,1.3256,1.3294,1.3337,1.3369,1.3404,1.3439,1.346,1.3485,1.3518,1.3567,1.3598,1.366,1.3709,1.3759,1.3784,1.3788,1.379,1.3801,1.3797,1.3788,1.3795,1.3695,1.3787,1.3787,1.3787,1.3786,1.3786,1.3294,1.3325,1.3361,1.3405,1.3433,1.3465,1.3499,1.3522,1.3563,1.3614,1.3623,1.3676,1.3716,1.3783,1.381,1.3853,1.3846,1.3861,1.3865,1.3869,1.3871,1.378,1.3862,1.3862,1.3862,1.3862,1.3862,0,1.3364,1.3388,1.3427,1.3475,1.351,1.3509,1.3548,1.3578,1.3624,1.366,1.3699,1.3757,1.3805,1.3839,1.3889,1.3918,1.3921,1.393,1.3929,1.3935,1.3874,1.386,1.3927,1.3927,1.3927,1.3927,1.3927,1.3926,1.3404,1.3458,1.3472,1.3541,1.3565,1.3615,1.3637,1.3669,1.3698,1.3761,1.3801,1.3822,1.3858,1.3911,1.3957,1.3966,1.3984,1.3994,1.4003,1.3946,1.3939,1.3932,1.3919,1.3997,1.3997,1.4061,1.4061,1.4062]},{"header":{"parameterUnit":"m.s-1","parameterCategory":1,"la1":30.2991,"la2":30.254,"lo1":-89.0895,"lo2":-89.0444,"dy":0.0017,"dx":0.0017,"nx":28,"ny":28,"refTime":"2026-02-08T09:00:00:Z","depth":0,"parameterNumber":3,"parameterNumberName":"V-component_of_WINDS"},"data":[0,0,0,0,0,0,0,0,0,0,0,0,0,0,0,0,0,0,0,0,0,0,0,0,0,0,0,0,0,0,0,0,0,0,0,0,0,0,0,0,0,0,0,0,0,0,0,0,0,0,0,0,0,0,0,0,0,0,0.5637,0.5637,0,0.5587,0.5587,0.5586,0.5561,0.5561,0.5561,0.5561,0.5509,0.5507,0.5506,0,0,0,0,0,0,0,0,0,0,0,0,0,0.5709,0.5708,0.5637,0.5636,0.5636,0.5587,0.5586,0.5586,0.5561,0.5561,0.5561,0.5561,0.5509,0.5507,0.5506,0,0,0,0,0,0,0,0,0,0,0,0,0,0.567,0.5708,0.5637,0.5618,0.5616,0.5587,0.5586,0.5586,0.5561,0.5561,0.5561,0.5561,0.551,0.5508,0.5505,0.5492,0,0,0.5499,0.5498,0,0,0,0,0,0,0,0,0.5673,0.5668,0.5621,0.5619,0.5617,0.5581,0.5593,0.5554,0.5561,0.5582,0.5561,0.5562,0.5532,0.5528,0.5519,0.549,0.5487,0.5499,0.5498,0.5497,0.5496,0,0,0,0,0,0,0,0.5675,0.567,0.5617,0.5621,0.5618,0.5611,0.5605,0.5585,0.5558,0.558,0.5578,0.5573,0.5531,0.5521,0.5518,0.5487,0.5499,0.5497,0.5496,0.5495,0.5443,0.5443,0,0,0,0,0,0,0.5681,0.5672,0.5619,0.5616,0.5645,0.561,0.5604,0.5592,0.5558,0.5553,0.5573,0.5572,0.5525,0.552,0.5516,0.5497,0.5497,0.5495,0.5493,0.5443,0.5443,0.5443,0,0,0,0,0,0,0.5683,0.5677,0.5621,0.5643,0.5636,0.5608,0.5596,0.5591,0.5581,0.5552,0.5547,0.5568,0.5525,0.5519,0.5498,0.5495,0.5494,0.5492,0.5443,0.5443,0.5443,0.546,0,0,0,0,0,0,0.5685,0.5678,0.5673,0.5644,0.5635,0.5605,0.5596,0.559,0.5578,0.5576,0.5546,0.5541,0.5524,0.5501,0.5496,0.5492,0.549,0.5443,0.5443,0.5443,0.546,0.5461,0.5462,0,0,0,0,0,0.5688,0.568,0.5673,0.5666,0.5628,0.5605,0.56,0.558,0.5578,0.5572,0.5553,0.5542,0.5496,0.5499,0.5493,0.5489,0.5443,0.5443,0.5443,0.546,0.5461,0.5462,0,0,0,0,0,0,0.5709,0.5675,0.5667,0.565,0.563,0.5601,0.5593,0.5582,0.5563,0.5562,0.5539,0.5532,0.5514,0.5499,0.5503,0.5473,0.5469,0.5467,0.5484,0.5484,0.5485,0.5489,0.5488,0,0,0,0,0,0.5711,0.5696,0.5667,0.5654,0.5645,0.5621,0.561,0.5597,0.5576,0.5567,0.5547,0.5526,0.5507,0.5495,0.5476,0.5458,0.545,0.5451,0.5452,0.5453,0.5452,0.544,0.544,0.5442,0.5442,0.5442,0,0,0.5716,0.5696,0.5688,0.5658,0.5641,0.5625,0.5614,0.5597,0.5585,0.5564,0.5544,0.5528,0.5504,0.5484,0.5475,0.5471,0.545,0.5453,0.5454,0.5452,0.544,0.544,0.544,0.5442,0.5442,0.5442,0,0,0.5717,0.5701,0.5688,0.5671,0.5647,0.5631,0.5628,0.5599,0.5589,0.5568,0.5552,0.5536,0.5504,0.5487,0.5474,0.5467,0.5456,0.5462,0.5466,0.5455,0.5455,0.5455,0.5452,0.5451,0.5461,0.5461,0.5461,0,0.5726,0.5702,0.5682,0.5666,0.5653,0.5635,0.5621,0.5606,0.5576,0.5567,0.5564,0.5522,0.5504,0.548,0.5479,0.5469,0.5464,0.5465,0.5457,0.5456,0.5456,0.5453,0.5452,0.5462,0.5462,0.5461,0.5461,0,0.5714,0.5697,0.5689,0.5661,0.5647,0.5633,0.561,0.5598,0.5586,0.557,0.5549,0.5527,0.5502,0.5496,0.5484,0.547,0.5468,0.5461,0.5456,0.5457,0.5454,0.5452,0.5463,0.5463,0.5462,0.5462,0,0,0.5726,0.5688,0.5685,0.5672,0.5643,0.5629,0.5613,0.559,0.558,0.556,0.5545,0.5518,0.5511,0.5497,0.5483,0.5473,0.5469,0.5467,0.5466,0.5468,0.5451,0.5456,0.5455,0.5461,0.5461,0.5461,0.5453,0,0.5722,0.5694,0.5675,0.5653,0.5637,0.5619,0.5605,0.5585,0.557,0.5553,0.5536,0.5517,0.551,0.5501,0.5491,0.5472,0.5465,0.5472,0.5447,0.5446,0.5453,0.5454,0.5459,0.5453,0.5452,0.5451,0.5451,0,0.5714,0.5695,0.5672,0.5644,0.5637,0.5625,0.5601,0.5586,0.5563,0.5552,0.5536,0.5522,0.5503,0.55,0.5473,0.5478,0.5467,0.5456,0.5455,0.5452,0.5448,0.545,0.545,0.5449,0.5449,0.5449,0.5449,0,0.5725,0.5693,0.5675,0.5664,0.5632,0.5624,0.561,0.5587,0.5574,0.5553,0.5545,0.5522,0.551,0.5492,0.5472,0.5471,0.5447,0.5442,0.5437,0.5438,0.5433,0.5433,0.5431,0.5426,0.5426,0.5426,0.5426,0,0.5722,0.5709,0.5679,0.5668,0.5652,0.5631,0.5615,0.5599,0.5579,0.5564,0.5547,0.5533,0.5507,0.549,0.5474,0.5454,0.5448,0.5439,0.5434,0.544,0.5441,0.5432,0.5431,0.5426,0.5426,0.5426,0.5426,0,0.5731,0.5711,0.569,0.5661,0.5654,0.5643,0.5618,0.5606,0.559,0.5571,0.5565,0.5539,0.5517,0.5496,0.5466,0.5456,0.5436,0.5431,0.5444,0.5441,0.5437,0.5438,0.5429,0.5426,0.5424,0.5424,0.5424,0,0.5731,0.572,0.569,0.5679,0.5666,0.5648,0.5635,0.5613,0.56,0.5573,0.5564,0.5541,0.5522,0.5488,0.5466,0.5444,0.5437,0.5435,0.5434,0.5439,0.5436,0.5437,0.5435,0.5436,0.5436,0.5436,0.5436,0,0.5732,0.5723,0.5705,0.5683,0.5668,0.5649,0.563,0.5622,0.5597,0.5582,0.556,0.5546,0.5516,0.5493,0.5468,0.5452,0.544,0.5437,0.5435,0.544,0.5448,0.5443,0.5445,0.5438,0.5437,0.5437,0.5437,0.5437,0.5736,0.5725,0.5702,0.5683,0.5666,0.5649,0.5636,0.5618,0.56,0.5574,0.5562,0.554,0.5517,0.5482,0.5466,0.5448,0.5445,0.5441,0.544,0.544,0.5441,0.5451,0.5444,0.5443,0.5443,0.5443,0.5443,0,0.5736,0.572,0.5702,0.5676,0.5661,0.5651,0.5629,0.5616,0.5597,0.5577,0.5558,0.5533,0.5511,0.5487,0.5463,0.5453,0.5447,0.5447,0.5448,0.5444,0.5445,0.545,0.5453,0.5453,0.5453,0.5453,0.5453,0.5453,0.5734,0.5715,0.5703,0.5675,0.5659,0.5638,0.5626,0.561,0.5593,0.5566,0.5548,0.5533,0.551,0.5485,0.5464,0.5457,0.5449,0.5451,0.5443,0.5445,0.5444,0.5443,0.5447,0.545,0.545,0.5443,0.5443,0.5443]}]]